Wiley Ford, WV

12:21 PM EST on February 28, 2017 (GMT -0500)
Greater Cumberland Regional

Weather History for KCBE - September, 2013

Change the Weather History Date:

Monday, September 16, 2013

  Actual Average (KMRB) Record (KMRB)
Temperature  
Mean Temperature 62 °F -  
Max Temperature 69 °F 77 °F 98 °F (1991)
Min Temperature 55 °F 54 °F 39 °F (2001)
Degree Days  
Heating Degree Days 3    
Growing Degree Days 12 (Base 50)    
Moisture  
Dew Point 52 °F    
Average Humidity 71    
Maximum Humidity 94    
Minimum Humidity 40    
Precipitation  
Precipitation 0.00 in - - ()
Sea Level Pressure  
Sea Level Pressure 30.19 in    
Wind  
Wind Speed 3 mph (NNW)    
Max Wind Speed 12 mph    
Max Gust Speed 17 mph    
Visibility 10 miles    
Events      
Averages and records for this station are not official NWS values.
T = Trace of Precipitation, MM = Missing Value Source: NWS Daily Summary

Daily Weather History Graph

Daily Weather History Graph

Search for Another Location

Airport or City:

Trip Planner

Search our weather history database for the weather conditions in past years. The results will help you decide how hot, cold, wet, or windy it might be!

Date:

Astronomy

Sep. 16, 2013 Rise Set
Actual Time 6:57 AM EDT 7:21 PM EDT
Civil Twilight 6:30 AM EDT 7:48 PM EDT
Nautical Twilight 5:58 AM EDT 8:20 PM EDT
Astronomical Twilight 5:26 AM EDT 8:52 PM EDT
Moon 5:29 PM EDT (9/16) 3:41 AM EDT (9/16)
Length of Visible Light 13h 18m
Length of Day
12h 24m
Waxing Gibbous, 90% of the Moon is Illuminated
Sep 16
Waxing Gibbous
Sep 19
Full
Sep 26
Last Quarter
Oct 4
New
Oct 11
First Quarter

Hourly Weather History & Observations

Time (EDT) Temp. Dew Point Humidity Pressure Visibility Wind Dir Wind Speed Gust Speed Precip Events Conditions
12:16 AM 57.2 °F 53.6 °F 88% 30.12 in 10.0 mi Calm Calm - N/A   Scattered Clouds
12:36 AM 57.2 °F 53.6 °F 88% 30.13 in 10.0 mi Calm Calm - N/A   Clear
12:56 AM 57.2 °F 53.6 °F 88% 30.12 in 10.0 mi Calm Calm - N/A   Clear
1:16 AM 55.4 °F 53.6 °F 94% 30.12 in 10.0 mi Calm Calm - N/A   Scattered Clouds
1:36 AM 55.4 °F 53.6 °F 94% 30.12 in 10.0 mi Calm Calm - N/A   Scattered Clouds
1:56 AM 57.2 °F 55.4 °F 94% 30.12 in 10.0 mi Calm Calm - N/A   Clear
2:16 AM 57.2 °F 55.4 °F 94% 30.12 in 10.0 mi Calm Calm - N/A   Scattered Clouds
2:36 AM 57.2 °F 55.4 °F 94% 30.12 in 10.0 mi Calm Calm - N/A   Scattered Clouds
2:56 AM 57.2 °F 55.4 °F 94% 30.11 in 10.0 mi Calm Calm - N/A   Scattered Clouds
3:17 AM 57.2 °F 55.4 °F 94% 30.11 in 10.0 mi Calm Calm - N/A   Scattered Clouds
3:37 AM 59.0 °F 55.4 °F 88% 30.10 in 10.0 mi Calm Calm - N/A   Scattered Clouds
3:57 AM 59.0 °F 55.4 °F 88% 30.10 in 10.0 mi Calm Calm - N/A   Mostly Cloudy
4:17 AM 59.0 °F 55.4 °F 88% 30.10 in 10.0 mi Calm Calm - N/A   Scattered Clouds
4:37 AM 59.0 °F 53.6 °F 82% 30.10 in 10.0 mi North 4.6 mph - N/A   Scattered Clouds
4:57 AM 59.0 °F 53.6 °F 82% 30.11 in 10.0 mi Calm Calm - N/A   Mostly Cloudy
5:17 AM 59.0 °F 55.4 °F 88% 30.12 in 10.0 mi North 5.8 mph - N/A   Overcast
5:37 AM 59.0 °F 55.4 °F 88% 30.13 in 10.0 mi North 6.9 mph - N/A   Overcast
5:57 AM 60.8 °F 55.4 °F 82% 30.15 in 10.0 mi NNW 11.5 mph 17.3 mph N/A   Mostly Cloudy
6:17 AM 60.8 °F 53.6 °F 77% 30.15 in 10.0 mi North 8.1 mph - N/A   Mostly Cloudy
6:37 AM 59.0 °F 53.6 °F 82% 30.16 in 10.0 mi North 9.2 mph - N/A   Overcast
6:57 AM 59.0 °F 53.6 °F 82% 30.16 in 10.0 mi North 3.5 mph - N/A   Mostly Cloudy
7:17 AM 59.0 °F 53.6 °F 82% 30.17 in 10.0 mi NNE 4.6 mph - N/A   Mostly Cloudy
7:37 AM 59.0 °F 53.6 °F 82% 30.17 in 10.0 mi Calm Calm - N/A   Mostly Cloudy
7:57 AM 59.0 °F 53.6 °F 82% 30.18 in 10.0 mi Calm Calm - N/A   Mostly Cloudy
8:17 AM 57.2 °F 55.4 °F 94% 30.18 in 10.0 mi Calm Calm - N/A   Overcast
8:37 AM 59.0 °F 55.4 °F 88% 30.18 in 10.0 mi Calm Calm - N/A   Overcast
8:57 AM 59.0 °F 55.4 °F 88% 30.19 in 10.0 mi Calm Calm - N/A   Overcast
9:17 AM 59.0 °F 55.4 °F 88% 30.19 in 10.0 mi Calm Calm - N/A   Mostly Cloudy
9:37 AM 59.0 °F 55.4 °F 88% 30.20 in 10.0 mi SSW 3.5 mph - N/A   Overcast
9:57 AM 59.0 °F 55.4 °F 88% 30.20 in 10.0 mi Calm Calm - N/A   Mostly Cloudy
10:17 AM 60.8 °F 55.4 °F 82% 30.21 in 10.0 mi Calm Calm - N/A   Mostly Cloudy
10:37 AM 60.8 °F 53.6 °F 77% 30.22 in 10.0 mi Calm Calm - N/A   Overcast
10:57 AM 62.6 °F 55.4 °F 77% 30.22 in 10.0 mi Calm Calm - N/A   Overcast
11:17 AM 62.6 °F 53.6 °F 72% 30.22 in 10.0 mi Calm Calm - N/A   Mostly Cloudy
11:37 AM 64.4 °F 51.8 °F 64% 30.22 in 10.0 mi NNW 4.6 mph - N/A   Mostly Cloudy
11:58 AM 64.4 °F 51.8 °F 64% 30.22 in 10.0 mi North 6.9 mph - N/A   Mostly Cloudy
12:18 PM 64.4 °F 51.8 °F 64% 30.23 in 10.0 mi NW 3.5 mph - N/A   Overcast
12:38 PM 64.4 °F 51.8 °F 64% 30.22 in 10.0 mi North 6.9 mph - N/A   Overcast
12:58 PM 64.4 °F 50.0 °F 59% 30.22 in 10.0 mi NNW 9.2 mph - N/A   Mostly Cloudy
1:18 PM 66.2 °F 50.0 °F 56% 30.22 in 10.0 mi WNW 9.2 mph - N/A   Mostly Cloudy
1:38 PM 68.0 °F 50.0 °F 52% 30.21 in 10.0 mi NNW 6.9 mph - N/A   Mostly Cloudy
1:58 PM 68.0 °F 48.2 °F 49% 30.22 in 10.0 mi WNW 5.8 mph - N/A   Overcast
2:18 PM 68.0 °F 48.2 °F 49% 30.22 in 10.0 mi NNW 5.8 mph - N/A   Mostly Cloudy
2:38 PM 68.0 °F 46.4 °F 46% 30.22 in 10.0 mi NNW 9.2 mph - N/A   Mostly Cloudy
3:18 PM 69.8 °F 46.4 °F 43% 30.21 in 10.0 mi NNW 6.9 mph - N/A   Scattered Clouds
3:38 PM 69.8 °F 44.6 °F 40% 30.20 in 10.0 mi NW 9.2 mph - N/A   Scattered Clouds
3:58 PM 69.8 °F 46.4 °F 43% 30.20 in 10.0 mi NW 5.8 mph - N/A   Scattered Clouds
4:18 PM 69.8 °F 46.4 °F 43% 30.20 in 10.0 mi NNW 9.2 mph 16.1 mph N/A   Clear
4:38 PM 69.8 °F 46.4 °F 43% 30.20 in 10.0 mi North 6.9 mph - N/A   Clear
4:58 PM 69.8 °F 46.4 °F 43% 30.20 in 10.0 mi NNW 10.4 mph 16.1 mph N/A   Clear
5:18 PM 69.8 °F 46.4 °F 43% 30.20 in 10.0 mi NW 9.2 mph - N/A   Clear
5:38 PM 69.8 °F 44.6 °F 40% 30.20 in 10.0 mi NNW 6.9 mph - N/A   Clear
5:58 PM 69.8 °F 46.4 °F 43% 30.20 in 10.0 mi NNW 9.2 mph - N/A   Clear
6:18 PM 69.8 °F 46.4 °F 43% 30.21 in 10.0 mi NNW 8.1 mph - N/A   Scattered Clouds
6:38 PM 69.8 °F 46.4 °F 43% 30.22 in 10.0 mi NW 6.9 mph - N/A   Scattered Clouds
6:58 PM 68.0 °F 46.4 °F 46% 30.22 in 10.0 mi NNW 6.9 mph - N/A   Scattered Clouds
7:18 PM 68.0 °F 46.4 °F 46% 30.22 in 10.0 mi NW 5.8 mph - N/A   Scattered Clouds
7:38 PM 66.2 °F 46.4 °F 49% 30.23 in 10.0 mi WNW 3.5 mph - N/A   Scattered Clouds
7:58 PM 64.4 °F 48.2 °F 56% 30.24 in 10.0 mi NW 3.5 mph - N/A   Clear
8:19 PM 64.4 °F 50.0 °F 59% 30.25 in 10.0 mi Calm Calm - N/A   Scattered Clouds
8:39 PM 62.6 °F 50.0 °F 63% 30.25 in 10.0 mi Calm Calm - N/A   Scattered Clouds
8:59 PM 62.6 °F 50.0 °F 63% 30.26 in 10.0 mi Calm Calm - N/A   Scattered Clouds
9:19 PM 62.6 °F 50.0 °F 63% 30.27 in 10.0 mi Calm Calm - N/A   Scattered Clouds
9:39 PM 60.8 °F 50.0 °F 68% 30.27 in 10.0 mi NNE 3.5 mph - N/A   Scattered Clouds
9:59 PM 60.8 °F 51.8 °F 72% 30.28 in 10.0 mi NNW 4.6 mph - N/A   Mostly Cloudy
10:19 PM 59.0 °F 51.8 °F 77% 30.28 in 10.0 mi Calm Calm - N/A   Scattered Clouds
10:39 PM 59.0 °F 51.8 °F 77% 30.29 in 10.0 mi NNW 3.5 mph - N/A   Clear
10:59 PM 59.0 °F 51.8 °F 77% 30.30 in 10.0 mi NNE 4.6 mph - N/A   Clear
11:19 PM 59.0 °F 51.8 °F 77% 30.30 in 10.0 mi North 3.5 mph - N/A   Clear
11:39 PM 59.0 °F 51.8 °F 77% 30.31 in 10.0 mi North 3.5 mph - N/A   Clear
11:59 PM 55.4 °F 51.8 °F 88% 30.32 in 10.0 mi Calm Calm - N/A   Clear